,,PA_Meas_PMT16A,,PR_Meas_QMR101_102,,RH_Meas_QMH101,,SR_Meas_QMS101,,TA_Meas_QMH101,,GenWind,,GenWind,
time,status,PA,status,PR,status,RH,status,SR,status,TA,status,DirAvg,status,SpdAvg,
2009-12-13, 00:00:04,VALID,917.068,VALID,0,VALID,91.0846,VALID,0,VALID,20.5562,VALID,168,VALID,0.873828,
2009-12-13, 00:01:04,VALID,917.054,VALID,0,VALID,90.8254,VALID,0.107441,VALID,20.6163,VALID,168,VALID,0.861328,
2009-12-13, 00:02:04,VALID,917.028,VALID,0,VALID,90.6653,VALID,0.107441,VALID,20.6358,VALID,139,VALID,0.827734,
2009-12-13, 00:03:04,VALID,917.018,VALID,0,VALID,90.5891,VALID,0,VALID,20.6358,VALID,138,VALID,0.561719,
2009-12-13, 00:04:04,VALID,917.024,VALID,0,VALID,90.65,VALID,0,VALID,20.6358,VALID,138,VALID,0.576172,
2009-12-13, 00:05:04,VALID,917.027,VALID,0,VALID,90.7339,VALID,0,VALID,20.6358,VALID,138,VALID,0.424219,
2009-12-13, 00:06:04,VALID,917.037,VALID,0,VALID,90.6882,VALID,0,VALID,20.6358,VALID,138,VALID,0.764453,
2009-12-13, 00:07:04,VALID,917.027,VALID,0,VALID,90.5281,VALID,0,VALID,20.6748,VALID,138,VALID,0.830469,
2009-12-13, 00:08:04,VALID,917.027,VALID,0,VALID,90.3908,VALID,0.107441,VALID,20.6943,VALID,138,VALID,0.494141,
2009-12-13, 00:09:04,VALID,917.028,VALID,0,VALID,90.307,VALID,0.107441,VALID,20.6748,VALID,138,VALID,0.344141,
2009-12-13, 00:10:04,VALID,917.018,VALID,0,VALID,90.2079,VALID,0.107441,VALID,20.6943,VALID,138,VALID,0.267578,
2009-12-13, 00:11:04,VALID,917.002,VALID,0,VALID,90.4518,VALID,0,VALID,20.6553,VALID,138,VALID,0.45625,
2009-12-13, 00:12:04,VALID,917.005,VALID,0,VALID,90.4899,VALID,0.107441,VALID,20.6553,VALID,138,VALID,0.524219,
2009-12-13, 00:13:04,VALID,916.993,VALID,0,VALID,90.2994,VALID,0,VALID,20.6748,VALID,138,VALID,0.579297,
2009-12-13, 00:14:04,VALID,917.006,VALID,0,VALID,90.0554,VALID,0,VALID,20.6748,VALID,138,VALID,0.619141,
2009-12-13, 00:15:04,VALID,917.007,VALID,0,VALID,90.3375,VALID,0,VALID,20.6163,VALID,138,VALID,0.489062,
2009-12-13, 00:16:04,VALID,917.019,VALID,0,VALID,90.7187,VALID,0.107441,VALID,20.5773,VALID,138,VALID,1.24297,
2009-12-13, 00:17:04,VALID,917.017,VALID,0,VALID,90.6119,VALID,0.107441,VALID,20.6163,VALID,138,VALID,0.713281,
2009-12-13, 00:18:04,VALID,917.021,VALID,0,VALID,90.5891,VALID,0.107441,VALID,20.6163,VALID,138,VALID,0.464453,
2009-12-13, 00:19:04,VALID,917.056,VALID,0,VALID,90.7034,VALID,0,VALID,20.5968,VALID,138,VALID,0.617188,
2009-12-13, 00:20:04,VALID,917.033,VALID,0,VALID,90.8406,VALID,0.107441,VALID,20.5757,VALID,138,VALID,0.824219,
2009-12-13, 00:21:04,VALID,917.004,VALID,0,VALID,90.4671,VALID,0,VALID,20.5773,VALID,138,VALID,0.761719,
2009-12-13, 00:22:04,VALID,917.015,VALID,0,VALID,90.9092,VALID,0.107441,VALID,20.5757,VALID,138,VALID,0.909766,
2009-12-13, 00:23:04,VALID,916.98,VALID,0,VALID,90.9473,VALID,0,VALID,20.5773,VALID,138,VALID,1.11328,
2009-12-13, 00:24:04,VALID,916.986,VALID,0,VALID,90.8483,VALID,0,VALID,20.5773,VALID,138,VALID,1.08281,
2009-12-13, 00:25:04,VALID,916.944,VALID,0,VALID,90.5586,VALID,0,VALID,20.6163,VALID,95,VALID,1.30508,
2009-12-13, 00:26:04,VALID,916.966,VALID,0,VALID,89.9639,VALID,0,VALID,20.6358,VALID,97,VALID,1.12188,
2009-12-13, 00:27:04,VALID,916.93,VALID,0,VALID,90.4213,VALID,0.107441,VALID,20.6163,VALID,97,VALID,0.605469,
2009-12-13, 00:28:04,VALID,916.94,VALID,0,VALID,90.4442,VALID,0,VALID,20.5578,VALID,97,VALID,0.670703,
2009-12-13, 00:29:04,VALID,916.913,VALID,0,VALID,91.0541,VALID,0,VALID,20.5383,VALID,96,VALID,1.26328,
2009-12-13, 00:30:04,VALID,916.904,VALID,0,VALID,90.9855,VALID,0,VALID,20.5383,VALID,96,VALID,1.33984,
2009-12-13, 00:31:04,VALID,916.883,VALID,0,VALID,90.9092,VALID,0.107441,VALID,20.5367,VALID,96,VALID,1.12656,
2009-12-13, 00:32:04,VALID,916.898,VALID,0,VALID,90.7034,VALID,0.107441,VALID,20.5773,VALID,96,VALID,0.765234,
2009-12-13, 00:33:04,VALID,916.88,VALID,0,VALID,90.4976,VALID,0,VALID,20.5773,VALID,96,VALID,1.11484,
2009-12-13, 00:34:04,VALID,916.844,VALID,0,VALID,90.5814,VALID,0,VALID,20.5952,VALID,96,VALID,1.22266,
2009-12-13, 00:35:04,VALID,916.85,VALID,0,VALID,90.3527,VALID,0.107441,VALID,20.6147,VALID,97,VALID,0.955469,
2009-12-13, 00:36:04,VALID,916.86,VALID,0,VALID,90.2536,VALID,0,VALID,20.6553,VALID,96,VALID,1.09258,
2009-12-13, 00:37:04,VALID,916.889,VALID,0,VALID,90.307,VALID,0.107441,VALID,20.6553,VALID,96,VALID,0.943359,
2009-12-13, 00:38:04,VALID,916.916,VALID,0,VALID,90.2689,VALID,0,VALID,20.6943,VALID,133,VALID,1.16914,
2009-12-13, 00:39:04,VALID,916.885,VALID,0,VALID,90.1316,VALID,0,VALID,20.7333,VALID,139,VALID,1.37422,
2009-12-13, 00:40:04,VALID,916.935,VALID,0,VALID,90.0249,VALID,0,VALID,20.7333,VALID,161,VALID,1.01094,
2009-12-13, 00:41:04,VALID,916.928,VALID,0,VALID,89.7429,VALID,0,VALID,20.7138,VALID,129,VALID,1.54883,
2009-12-13, 00:42:04,VALID,916.902,VALID,0,VALID,89.6666,VALID,0,VALID,20.7528,VALID,158,VALID,1.99805,
2009-12-13, 00:43:04,VALID,916.888,VALID,0,VALID,89.5294,VALID,0,VALID,20.8309,VALID,151,VALID,1.17422,
2009-12-13, 00:44:04,VALID,916.849,VALID,0,VALID,89.5675,VALID,0,VALID,20.8309,VALID,133,VALID,1.43047,
2009-12-13, 00:45:04,VALID,916.837,VALID,0,VALID,89.598,VALID,0,VALID,20.8504,VALID,133,VALID,1.14648,
2009-12-13, 00:46:04,VALID,916.824,VALID,0,VALID,89.2778,VALID,0,VALID,20.8504,VALID,126,VALID,1.10898,
2009-12-13, 00:47:04,VALID,916.815,VALID,0,VALID,89.5828,VALID,0.107441,VALID,20.8699,VALID,126,VALID,0.929688,
2009-12-13, 00:48:04,VALID,916.76,VALID,0,VALID,89.4837,VALID,0,VALID,20.8699,VALID,126,VALID,1.05,
2009-12-13, 00:49:04,VALID,916.738,VALID,0,VALID,89.4684,VALID,0,VALID,20.8699,VALID,126,VALID,0.959766,
2009-12-13, 00:50:04,VALID,916.713,VALID,0,VALID,89.4913,VALID,0.107441,VALID,20.8699,VALID,126,VALID,1.03633,
2009-12-13, 00:51:04,VALID,916.689,VALID,0,VALID,89.4227,VALID,0.107441,VALID,20.8504,VALID,126,VALID,1.60898,
2009-12-13, 00:52:04,VALID,916.673,VALID,0,VALID,89.2931,VALID,0.107441,VALID,20.8894,VALID,126,VALID,1.24063,
2009-12-13, 00:53:04,VALID,916.675,VALID,0,VALID,89.2321,VALID,0,VALID,20.8894,VALID,126,VALID,0.973828,
2009-12-13, 00:54:04,VALID,916.67,VALID,0,VALID,89.2092,VALID,0,VALID,20.9284,VALID,125,VALID,0.880469,
2009-12-13, 00:55:04,VALID,916.651,VALID,0,VALID,89.133,VALID,0,VALID,20.9073,VALID,183,VALID,0.880859,
2009-12-13, 00:56:04,VALID,916.644,VALID,0,VALID,89.1406,VALID,0.107441,VALID,20.9479,VALID,117,VALID,1.12383,
2009-12-13, 00:57:04,VALID,916.626,VALID,0,VALID,88.9958,VALID,0,VALID,20.9479,VALID,116,VALID,0.585938,
2009-12-13, 00:58:04,VALID,916.61,VALID,0,VALID,89.1787,VALID,0.107441,VALID,20.9284,VALID,125,VALID,1.15703,
2009-12-13, 00:59:04,VALID,916.609,VALID,0,VALID,89.1254,VALID,0.107441,VALID,20.9284,VALID,152,VALID,1.84805,
2009-12-13, 01:00:04,VALID,916.616,VALID,0,VALID,89.0263,VALID,0,VALID,20.9479,VALID,141,VALID,1.43164,
2009-12-13, 01:01:04,VALID,916.632,VALID,0,VALID,88.7975,VALID,0,VALID,20.9674,VALID,145,VALID,1.42891,
2009-12-13, 01:02:04,VALID,916.604,VALID,0,VALID,88.6298,VALID,0,VALID,20.9658,VALID,122,VALID,1.94219,
2009-12-13, 01:03:04,VALID,916.613,VALID,0,VALID,88.4469,VALID,0,VALID,21.0259,VALID,135,VALID,1.86953,
2009-12-13, 01:04:04,VALID,916.638,VALID,0,VALID,88.5841,VALID,0,VALID,21.0454,VALID,135,VALID,0.936719,
2009-12-13, 01:05:04,VALID,916.631,VALID,0,VALID,88.1191,VALID,0,VALID,21.0649,VALID,119,VALID,1.69922,
2009-12-13, 01:06:04,VALID,916.616,VALID,0,VALID,88.1648,VALID,0,VALID,21.0844,VALID,119,VALID,1.19375,
2009-12-13, 01:07:04,VALID,916.595,VALID,0,VALID,88.2792,VALID,0,VALID,21.0633,VALID,119,VALID,1.15742,
2009-12-13, 01:08:04,VALID,916.594,VALID,0,VALID,88.2868,VALID,0,VALID,21.0649,VALID,118,VALID,1.23867,
2009-12-13, 01:09:04,VALID,916.57,VALID,0,VALID,88.6298,VALID,0,VALID,21.0243,VALID,118,VALID,0.905078,
2009-12-13, 01:10:04,VALID,916.555,VALID,0,VALID,88.7213,VALID,0.107441,VALID,21.0259,VALID,118,VALID,1.10508,
2009-12-13, 01:11:04,VALID,916.544,VALID,0,VALID,88.6984,VALID,0,VALID,21.0259,VALID,118,VALID,1.16094,
2009-12-13, 01:12:04,VALID,916.563,VALID,0,VALID,88.6832,VALID,0.107441,VALID,21.0064,VALID,134,VALID,1.11719,
2009-12-13, 01:13:04,VALID,916.528,VALID,0,VALID,88.6222,VALID,0,VALID,21.0259,VALID,147,VALID,1.20078,
2009-12-13, 01:14:04,VALID,916.487,VALID,0,VALID,88.6375,VALID,0,VALID,21.0259,VALID,159,VALID,1.44844,
2009-12-13, 01:15:04,VALID,916.502,VALID,0,VALID,88.7137,VALID,0.107441,VALID,21.0259,VALID,159,VALID,1.28555,
2009-12-13, 01:16:04,VALID,916.496,VALID,0,VALID,88.7671,VALID,0.107441,VALID,21.0259,VALID,159,VALID,0.742578,
2009-12-13, 01:17:04,VALID,916.507,VALID,0,VALID,88.7747,VALID,0,VALID,21.0064,VALID,159,VALID,1.38047,
2009-12-13, 01:18:04,VALID,916.457,VALID,0,VALID,88.9576,VALID,0.107441,VALID,20.9869,VALID,159,VALID,0.950781,
2009-12-13, 01:19:04,VALID,916.455,VALID,0,VALID,89.1787,VALID,0,VALID,20.9674,VALID,159,VALID,1.19102,
2009-12-13, 01:20:04,VALID,916.439,VALID,0,VALID,89.2168,VALID,0,VALID,20.9479,VALID,159,VALID,0.660156,
2009-12-13, 01:21:04,VALID,916.419,VALID,0,VALID,89.3464,VALID,0.107441,VALID,20.9268,VALID,157,VALID,0.407813,
2009-12-13, 01:22:04,VALID,916.424,VALID,0,VALID,89.3769,VALID,0.107441,VALID,20.9089,VALID,134,VALID,0.882031,
2009-12-13, 01:23:04,VALID,916.403,VALID,0,VALID,89.5751,VALID,0.107441,VALID,20.93,VALID,157,VALID,0.907812,
2009-12-13, 01:24:04,VALID,916.375,VALID,0,VALID,89.6895,VALID,0,VALID,20.8683,VALID,171,VALID,1.04883,
2009-12-13, 01:25:04,VALID,916.374,VALID,0,VALID,89.9563,VALID,0.107441,VALID,20.8699,VALID,171,VALID,0.670703,
2009-12-13, 01:26:04,VALID,916.322,VALID,0,VALID,89.9334,VALID,0,VALID,20.8504,VALID,146,VALID,0.903516,
2009-12-13, 01:27:04,VALID,916.341,VALID,0,VALID,90.063,VALID,0,VALID,20.8309,VALID,135,VALID,1.19297,
2009-12-13, 01:28:04,VALID,916.319,VALID,0,VALID,90.307,VALID,0.107441,VALID,20.8113,VALID,135,VALID,1.29805,
2009-12-13, 01:29:04,VALID,916.322,VALID,0,VALID,90.4899,VALID,0.107441,VALID,20.7918,VALID,127,VALID,1.33281,
2009-12-13, 01:30:04,VALID,916.291,VALID,0,VALID,90.6577,VALID,0,VALID,20.7528,VALID,127,VALID,0.991406,
2009-12-13, 01:31:04,VALID,916.314,VALID,0,VALID,90.772,VALID,0,VALID,20.7333,VALID,131,VALID,1.07383,
2009-12-13, 01:32:04,VALID,916.251,VALID,0,VALID,90.894,VALID,0,VALID,20.7138,VALID,153,VALID,1.65625,
2009-12-13, 01:33:04,VALID,916.281,VALID,0,VALID,91.0541,VALID,0,VALID,20.7138,VALID,140,VALID,1.30469,
2009-12-13, 01:34:04,VALID,916.227,VALID,0,VALID,91.1379,VALID,0,VALID,20.6943,VALID,128,VALID,0.957031,
2009-12-13, 01:35:04,VALID,916.205,VALID,0,VALID,91.2294,VALID,0,VALID,20.6943,VALID,128,VALID,0.881641,
2009-12-13, 01:36:04,VALID,916.177,VALID,0,VALID,91.2066,VALID,0,VALID,20.6748,VALID,128,VALID,1.46523,
2009-12-13, 01:37:04,VALID,916.143,VALID,0,VALID,91.3057,VALID,0,VALID,20.6748,VALID,128,VALID,0.540625,
2009-12-13, 01:38:04,VALID,916.153,VALID,0,VALID,91.3514,VALID,0,VALID,20.6748,VALID,129,VALID,0.800391,
2009-12-13, 01:39:04,VALID,916.145,VALID,0,VALID,91.3819,VALID,0,VALID,20.6553,VALID,128,VALID,0.774219,
2009-12-13, 01:40:04,VALID,916.138,VALID,0,VALID,91.2828,VALID,0,VALID,20.6553,VALID,129,VALID,1.30391,
2009-12-13, 01:41:04,VALID,916.112,VALID,0,VALID,91.2752,VALID,0,VALID,20.6553,VALID,128,VALID,0.639453,
2009-12-13, 01:42:04,VALID,916.079,VALID,0,VALID,91.2447,VALID,0,VALID,20.6553,VALID,128,VALID,1.03672,
2009-12-13, 01:43:04,VALID,916.074,VALID,0,VALID,91.1456,VALID,0,VALID,20.6358,VALID,128,VALID,1.00156,
2009-12-13, 01:44:04,VALID,916.066,VALID,0,VALID,91.1456,VALID,0,VALID,20.6553,VALID,128,VALID,0.85625,
2009-12-13, 01:45:04,VALID,916.067,VALID,0,VALID,91.0541,VALID,0,VALID,20.6553,VALID,128,VALID,1.12031,
2009-12-13, 01:46:04,VALID,916.084,VALID,0,VALID,91.0083,VALID,0,VALID,20.6943,VALID,130,VALID,1.25508,
2009-12-13, 01:47:04,VALID,916.056,VALID,0,VALID,90.8483,VALID,0,VALID,20.6748,VALID,129,VALID,1.67305,
2009-12-13, 01:48:04,VALID,916.069,VALID,0,VALID,90.7491,VALID,0,VALID,20.6943,VALID,124,VALID,1.74023,
2009-12-13, 01:49:04,VALID,916.043,VALID,0,VALID,90.5357,VALID,0,VALID,20.7123,VALID,89,VALID,1.34531,
2009-12-13, 01:50:04,VALID,916.048,VALID,0,VALID,90.2308,VALID,0,VALID,20.7723,VALID,117,VALID,1.26445,
2009-12-13, 01:51:04,VALID,916.049,VALID,0,VALID,89.842,VALID,0,VALID,20.7723,VALID,102,VALID,1.21367,
2009-12-13, 01:52:04,VALID,916.031,VALID,0,VALID,89.537,VALID,0,VALID,20.8699,VALID,132,VALID,1.80898,
2009-12-13, 01:53:04,VALID,916.038,VALID,0,VALID,88.9958,VALID,0,VALID,20.8878,VALID,137,VALID,1.74297,
2009-12-13, 01:54:04,VALID,916.015,VALID,0,VALID,88.9576,VALID,0,VALID,20.9284,VALID,117,VALID,1.51094,
2009-12-13, 01:55:04,VALID,916.014,VALID,0,VALID,88.9805,VALID,0,VALID,20.9479,VALID,139,VALID,0.912109,
2009-12-13, 01:56:04,VALID,916.001,VALID,0,VALID,89.0415,VALID,0,VALID,20.9268,VALID,139,VALID,0.816016,
2009-12-13, 01:57:04,VALID,916.001,VALID,0,VALID,88.8585,VALID,0,VALID,20.9268,VALID,139,VALID,0.751172,
2009-12-13, 01:58:04,VALID,915.976,VALID,0,VALID,88.6375,VALID,0,VALID,20.9674,VALID,139,VALID,1.79219,
2009-12-13, 01:59:04,VALID,915.999,VALID,0,VALID,88.5536,VALID,0,VALID,21.0064,VALID,118,VALID,0.853125,
2009-12-13, 02:00:04,VALID,916.012,VALID,0,VALID,88.5612,VALID,0,VALID,21.0064,VALID,129,VALID,0.894531,
2009-12-13, 02:01:04,VALID,915.987,VALID,0,VALID,88.6527,VALID,0,VALID,20.9869,VALID,129,VALID,0.867188,
2009-12-13, 02:02:04,VALID,915.974,VALID,0,VALID,88.7594,VALID,0,VALID,20.9674,VALID,129,VALID,0.885938,
2009-12-13, 02:03:04,VALID,915.981,VALID,0,VALID,88.4545,VALID,0,VALID,20.9674,VALID,126,VALID,1.69336,
2009-12-13, 02:04:04,VALID,916.019,VALID,0,VALID,88.7899,VALID,0,VALID,20.9674,VALID,120,VALID,1.28281,
2009-12-13, 02:05:04,VALID,915.994,VALID,0,VALID,88.9424,VALID,0,VALID,20.8894,VALID,120,VALID,1.21289,
2009-12-13, 02:06:04,VALID,916.004,VALID,0,VALID,88.9195,VALID,0.107441,VALID,20.8878,VALID,120,VALID,1.2375,
2009-12-13, 02:07:04,VALID,915.973,VALID,0,VALID,88.9271,VALID,0,VALID,20.8878,VALID,124,VALID,1.23008,
2009-12-13, 02:08:04,VALID,915.995,VALID,0,VALID,89.2168,VALID,0,VALID,20.8894,VALID,142,VALID,0.867188,
2009-12-13, 02:09:04,VALID,915.97,VALID,0,VALID,89.4608,VALID,0,VALID,20.8714,VALID,142,VALID,0.704687,
2009-12-13, 02:10:04,VALID,915.958,VALID,0,VALID,89.5675,VALID,0,VALID,20.7918,VALID,142,VALID,1.08945,
2009-12-13, 02:11:04,VALID,915.949,VALID,0,VALID,89.7124,VALID,0,VALID,20.7723,VALID,142,VALID,1.00469,
2009-12-13, 02:12:04,VALID,915.947,VALID,0,VALID,89.9716,VALID,0,VALID,20.7528,VALID,141,VALID,0.898438,
2009-12-13, 02:13:04,VALID,915.938,VALID,0,VALID,89.9563,VALID,0,VALID,20.7333,VALID,142,VALID,1.09023,
2009-12-13, 02:14:04,VALID,915.944,VALID,0,VALID,90.1621,VALID,0,VALID,20.7138,VALID,142,VALID,1.4332,
2009-12-13, 02:15:04,VALID,915.958,VALID,0,VALID,90.3756,VALID,0,VALID,20.6943,VALID,142,VALID,1.10859,
2009-12-13, 02:16:04,VALID,915.956,VALID,0,VALID,90.6882,VALID,0,VALID,20.6748,VALID,142,VALID,0.858984,
2009-12-13, 02:17:04,VALID,915.963,VALID,0,VALID,90.9321,VALID,0,VALID,20.6358,VALID,142,VALID,0.497656,
2009-12-13, 02:18:04,VALID,915.918,VALID,0,VALID,91.0007,VALID,0,VALID,20.5968,VALID,142,VALID,0.974609,
2009-12-13, 02:19:04,VALID,915.947,VALID,0,VALID,91.1456,VALID,0,VALID,20.5773,VALID,142,VALID,0.995313,
2009-12-13, 02:20:04,VALID,915.966,VALID,0,VALID,91.2066,VALID,0,VALID,20.5773,VALID,142,VALID,0.65625,
2009-12-13, 02:21:04,VALID,915.93,VALID,0,VALID,91.3285,VALID,0,VALID,20.5578,VALID,142,VALID,1.15039,
2009-12-13, 02:22:04,VALID,915.906,VALID,0,VALID,91.4657,VALID,0,VALID,20.5383,VALID,142,VALID,0.686719,
2009-12-13, 02:23:04,VALID,915.874,VALID,0,VALID,91.5877,VALID,0,VALID,20.4993,VALID,142,VALID,0.567969,
2009-12-13, 02:24:04,VALID,915.851,VALID,0,VALID,91.603,VALID,0,VALID,20.4798,VALID,141,VALID,1.50469,
2009-12-13, 02:25:04,VALID,915.807,VALID,0,VALID,91.3666,VALID,0,VALID,20.5188,VALID,78,VALID,0.775781,
2009-12-13, 02:26:04,VALID,915.825,VALID,0,VALID,91.1684,VALID,0.107441,VALID,20.5367,VALID,147,VALID,1.41016,
2009-12-13, 02:27:04,VALID,915.814,VALID,0,VALID,90.9931,VALID,0,VALID,20.5562,VALID,117,VALID,1.14102,
2009-12-13, 02:28:04,VALID,915.806,VALID,0,VALID,90.8406,VALID,0,VALID,20.6163,VALID,117,VALID,1.27344,
2009-12-13, 02:29:04,VALID,915.825,VALID,0,VALID,90.8483,VALID,0,VALID,20.6163,VALID,117,VALID,1.14727,
2009-12-13, 02:30:04,VALID,915.797,VALID,0,VALID,90.8483,VALID,0,VALID,20.5968,VALID,148,VALID,1.4,
2009-12-13, 02:31:04,VALID,915.793,VALID,0,VALID,90.4595,VALID,0.107441,VALID,20.6163,VALID,125,VALID,1.51523,
2009-12-13, 02:32:04,VALID,915.811,VALID,0,VALID,90.3604,VALID,0,VALID,20.6553,VALID,116,VALID,1.04414,
2009-12-13, 02:33:04,VALID,915.811,VALID,0,VALID,89.9716,VALID,0,VALID,20.6748,VALID,108,VALID,1.45156,
2009-12-13, 02:34:04,VALID,915.773,VALID,0,VALID,89.6285,VALID,0.107441,VALID,20.7123,VALID,147,VALID,1.4207,
2009-12-13, 02:35:04,VALID,915.789,VALID,0,VALID,89.3464,VALID,0,VALID,20.7723,VALID,165,VALID,1.32852,
2009-12-13, 02:36:04,VALID,915.781,VALID,0,VALID,89.2321,VALID,0.107441,VALID,20.7918,VALID,97,VALID,1.28516,
2009-12-13, 02:37:04,VALID,915.765,VALID,0,VALID,89.1482,VALID,0.107441,VALID,20.8113,VALID,140,VALID,1.0168,
2009-12-13, 02:38:04,VALID,915.763,VALID,0,VALID,88.9424,VALID,0,VALID,20.7918,VALID,135,VALID,2.03164,
2009-12-13, 02:39:04,VALID,915.748,VALID,0,VALID,89.0644,VALID,0,VALID,20.8309,VALID,127,VALID,1.66289,
2009-12-13, 02:40:04,VALID,915.733,VALID,0,VALID,88.95,VALID,0.107441,VALID,20.8504,VALID,122,VALID,1.83477,
2009-12-13, 02:41:04,VALID,915.753,VALID,0,VALID,88.9043,VALID,0.107441,VALID,20.8504,VALID,149,VALID,1.19141,
2009-12-13, 02:42:04,VALID,915.707,VALID,0,VALID,88.8052,VALID,0,VALID,20.8504,VALID,120,VALID,1.16953,
2009-12-13, 02:43:04,VALID,915.716,VALID,0,VALID,89.0644,VALID,0,VALID,20.8113,VALID,120,VALID,0.7375,
2009-12-13, 02:44:04,VALID,915.71,VALID,0,VALID,89.0263,VALID,0,VALID,20.7934,VALID,82,VALID,1.26719,
2009-12-13, 02:45:04,VALID,915.723,VALID,0,VALID,88.8433,VALID,0,VALID,20.8324,VALID,122,VALID,1.1918,
2009-12-13, 02:46:04,VALID,915.687,VALID,0,VALID,88.7442,VALID,0,VALID,20.8309,VALID,122,VALID,1.0668,
2009-12-13, 02:47:04,VALID,915.707,VALID,0,VALID,88.8204,VALID,0.107441,VALID,20.8309,VALID,121,VALID,0.730859,
2009-12-13, 02:48:04,VALID,915.706,VALID,0,VALID,88.5841,VALID,0.107441,VALID,20.8113,VALID,138,VALID,2.00391,
2009-12-13, 02:49:04,VALID,915.696,VALID,0,VALID,88.0962,VALID,0,VALID,20.8699,VALID,100,VALID,1.5168,
2009-12-13, 02:50:04,VALID,915.719,VALID,0,VALID,87.8294,VALID,0,VALID,20.9284,VALID,132,VALID,1.73438,
2009-12-13, 02:51:04,VALID,915.679,VALID,0,VALID,87.7684,VALID,0,VALID,20.9479,VALID,143,VALID,1.07813,
2009-12-13, 02:52:04,VALID,915.673,VALID,0,VALID,87.5321,VALID,0,VALID,20.9479,VALID,123,VALID,1.70898,
2009-12-13, 02:53:04,VALID,915.68,VALID,0,VALID,87.4101,VALID,0,VALID,20.9674,VALID,121,VALID,1.08164,
2009-12-13, 02:54:04,VALID,915.684,VALID,0,VALID,87.3567,VALID,0,VALID,21.0064,VALID,127,VALID,1.53984,
2009-12-13, 02:55:04,VALID,915.673,VALID,0,VALID,87.5016,VALID,0,VALID,20.9869,VALID,107,VALID,1.40156,
2009-12-13, 02:56:04,VALID,915.653,VALID,0,VALID,87.5549,VALID,0,VALID,20.9885,VALID,107,VALID,1.34141,
2009-12-13, 02:57:04,VALID,915.662,VALID,0,VALID,87.8751,VALID,0,VALID,20.9284,VALID,107,VALID,0.855859,
2009-12-13, 02:58:04,VALID,915.643,VALID,0,VALID,88.02,VALID,0,VALID,20.9089,VALID,95,VALID,0.390234,
2009-12-13, 02:59:04,VALID,915.648,VALID,0,VALID,88.1496,VALID,0.107441,VALID,20.8699,VALID,101,VALID,0.933203,
2009-12-13, 03:00:04,VALID,915.622,VALID,0,VALID,87.9742,VALID,0,VALID,20.8309,VALID,118,VALID,0.935547,
2009-12-13, 03:01:04,VALID,915.621,VALID,0,VALID,87.7836,VALID,0.107441,VALID,20.8894,VALID,118,VALID,0.899609,
2009-12-13, 03:02:04,VALID,915.67,VALID,0,VALID,87.9285,VALID,0,VALID,20.8488,VALID,118,VALID,0.672266,
2009-12-13, 03:03:04,VALID,915.676,VALID,0,VALID,87.8065,VALID,0,VALID,20.8309,VALID,118,VALID,0.950391,
2009-12-13, 03:04:04,VALID,915.657,VALID,0,VALID,87.8141,VALID,0,VALID,20.8309,VALID,118,VALID,1.14336,
2009-12-13, 03:05:04,VALID,915.665,VALID,0,VALID,87.5626,VALID,0.107441,VALID,20.8519,VALID,118,VALID,0.812109,
2009-12-13, 03:06:04,VALID,915.63,VALID,0,VALID,87.3339,VALID,0,VALID,20.8699,VALID,118,VALID,0.863672,
2009-12-13, 03:07:04,VALID,915.646,VALID,0,VALID,87.5854,VALID,0.107441,VALID,20.8894,VALID,118,VALID,0.818359,
2009-12-13, 03:08:04,VALID,915.673,VALID,0,VALID,87.8065,VALID,0.107441,VALID,20.8699,VALID,118,VALID,0.813672,
2009-12-13, 03:09:04,VALID,915.653,VALID,0,VALID,88.0733,VALID,0,VALID,20.8309,VALID,118,VALID,0.844922,
2009-12-13, 03:10:04,VALID,915.685,VALID,0,VALID,88.3783,VALID,0,VALID,20.7708,VALID,118,VALID,0.605469,
2009-12-13, 03:11:04,VALID,915.703,VALID,0,VALID,88.7061,VALID,0,VALID,20.7544,VALID,118,VALID,1.18672,
2009-12-13, 03:12:04,VALID,915.706,VALID,0,VALID,88.7671,VALID,0,VALID,20.7349,VALID,118,VALID,1.04336,
2009-12-13, 03:13:04,VALID,915.717,VALID,0,VALID,87.433,VALID,0,VALID,20.7513,VALID,103,VALID,1.14844,
2009-12-13, 03:14:04,VALID,915.706,VALID,0,VALID,87.4025,VALID,0.107441,VALID,20.8699,VALID,116,VALID,1.50859,
2009-12-13, 03:15:04,VALID,915.661,VALID,0,VALID,87.7074,VALID,0,VALID,20.8699,VALID,118,VALID,1.43906,
2009-12-13, 03:16:04,VALID,915.695,VALID,0,VALID,88.1038,VALID,0.107441,VALID,20.8488,VALID,123,VALID,0.601953,
2009-12-13, 03:17:04,VALID,915.67,VALID,0,VALID,88.4469,VALID,0.107441,VALID,20.8309,VALID,123,VALID,0.898438,
2009-12-13, 03:18:04,VALID,915.654,VALID,0,VALID,88.7289,VALID,0,VALID,20.7723,VALID,123,VALID,1.11992,
2009-12-13, 03:19:04,VALID,915.649,VALID,0,VALID,88.6603,VALID,0.107441,VALID,20.7528,VALID,123,VALID,1.33203,
2009-12-13, 03:20:04,VALID,915.617,VALID,0,VALID,88.6984,VALID,0.107441,VALID,20.7528,VALID,123,VALID,1.17031,
2009-12-13, 03:21:04,VALID,915.623,VALID,0,VALID,88.668,VALID,0.107441,VALID,20.7723,VALID,123,VALID,0.867188,
2009-12-13, 03:22:04,VALID,915.609,VALID,0,VALID,88.485,VALID,0,VALID,20.7723,VALID,123,VALID,1.49492,
2009-12-13, 03:23:04,VALID,915.636,VALID,0,VALID,88.3859,VALID,0.107441,VALID,20.7918,VALID,139,VALID,1.11797,
2009-12-13, 03:24:04,VALID,915.622,VALID,0,VALID,88.5002,VALID,0.107441,VALID,20.7918,VALID,140,VALID,0.852734,
2009-12-13, 03:25:04,VALID,915.621,VALID,0,VALID,88.2487,VALID,0.107441,VALID,20.7528,VALID,139,VALID,1.50937,
2009-12-13, 03:26:04,VALID,915.619,VALID,0,VALID,88.0276,VALID,0.107441,VALID,20.8309,VALID,107,VALID,1.71914,
2009-12-13, 03:27:04,VALID,915.635,VALID,0,VALID,87.8827,VALID,0,VALID,20.8309,VALID,103,VALID,1.20273,
2009-12-13, 03:28:04,VALID,915.643,VALID,0,VALID,87.7531,VALID,0.107441,VALID,20.8309,VALID,103,VALID,1.38555,
2009-12-13, 03:29:04,VALID,915.645,VALID,0,VALID,87.8294,VALID,0.107441,VALID,20.8504,VALID,103,VALID,1.03828,
2009-12-13, 03:30:04,VALID,915.639,VALID,0,VALID,87.959,VALID,0,VALID,20.8309,VALID,103,VALID,1.12148,
2009-12-13, 03:31:04,VALID,915.628,VALID,0,VALID,87.959,VALID,0.107441,VALID,20.8309,VALID,103,VALID,1.2957,
2009-12-13, 03:32:04,VALID,915.65,VALID,0,VALID,87.959,VALID,0,VALID,20.8309,VALID,103,VALID,0.991016,
2009-12-13, 03:33:04,VALID,915.636,VALID,0,VALID,87.7913,VALID,0,VALID,20.8504,VALID,103,VALID,1.19687,
2009-12-13, 03:34:04,VALID,915.608,VALID,0,VALID,87.6388,VALID,0.107441,VALID,20.8894,VALID,103,VALID,1.46133,
2009-12-13, 03:35:04,VALID,915.633,VALID,0,VALID,87.654,VALID,0,VALID,20.8488,VALID,122,VALID,1.29844,
2009-12-13, 03:36:04,VALID,915.643,VALID,0,VALID,87.7684,VALID,0,VALID,20.8699,VALID,125,VALID,1.475,
2009-12-13, 03:37:04,VALID,915.636,VALID,0,VALID,88.0123,VALID,0,VALID,20.8309,VALID,125,VALID,0.982422,
2009-12-13, 03:38:04,VALID,915.628,VALID,0,VALID,88.1267,VALID,0,VALID,20.8113,VALID,125,VALID,1.20625,
2009-12-13, 03:39:04,VALID,915.633,VALID,0,VALID,88.4316,VALID,0,VALID,20.7528,VALID,125,VALID,1.17617,
2009-12-13, 03:40:04,VALID,915.657,VALID,0,VALID,88.607,VALID,0,VALID,20.7333,VALID,125,VALID,1.3457,
2009-12-13, 03:41:04,VALID,915.645,VALID,0,VALID,88.7061,VALID,0,VALID,20.7138,VALID,125,VALID,1.32852,